, WY

(GMT )
South Pass

Weather History for KFWZ - November, 2012

Change the Weather History Date:

Friday, November 2, 2012

  Actual Average Record
Temperature  
Mean Temperature 38 °F -  
Max Temperature 44 °F - - ()
Min Temperature 32 °F - - ()
Degree Days  
Heating Degree Days 27    
Moisture  
Dew Point 21 °F    
Average Humidity 53    
Maximum Humidity 65    
Minimum Humidity 39    
Precipitation  
Precipitation 0.00 in - - ()
Sea Level Pressure  
Sea Level Pressure 30.07 in    
Wind  
Wind Speed 6 mph ()    
Max Wind Speed 15 mph    
Max Gust Speed 22 mph    
Visibility 10.0 miles    
Events      
Averages and records for this station are not official NWS values.
T = Trace of Precipitation, MM = Missing Value Source: Averaged Metar Reports

Daily Weather History Graph

Daily Weather History Graph

Search for Another Location

Airport or City:

Trip Planner

Search our weather history database for the weather conditions in past years. The results will help you decide how hot, cold, wet, or windy it might be!

Date:

Astronomy

Nov. 02, 2012 Rise Set
Actual Time 7:50 AM MDT 6:06 PM MDT
Civil Twilight 7:21 AM MDT 6:35 PM MDT
Nautical Twilight 6:47 AM MDT 7:08 PM MDT
Astronomical Twilight 6:15 AM MDT 7:41 PM MDT
Moon 8:53 PM MDT (11/2) 11:16 AM MDT (11/2)
Length of Visible Light 11h 14m
Length of Day
10h 15m
Waning Gibbous, 87% of the Moon is Illuminated
Nov 2
Waning Gibbous
Nov 6
Last Quarter
Nov 13
New
Nov 20
First Quarter
Nov 28
Full

Hourly Weather History & Observations

Time (MDT) Temp. Windchill Dew Point Humidity Pressure Visibility Wind Dir Wind Speed Gust Speed Precip Events Conditions
12:15 AM 37.4 °F 31.4 °F 26.6 °F 65% 30.00 in 10.0 mi West 8.1 mph - N/A   Clear
12:35 AM 37.4 °F 30.8 °F 26.6 °F 65% 30.00 in 10.0 mi NW 9.2 mph - N/A   Clear
12:55 AM 37.4 °F 32.8 °F 26.6 °F 65% 30.01 in 10.0 mi WNW 5.8 mph 17.3 mph N/A   Clear
1:15 AM 37.4 °F 32.8 °F 26.6 °F 65% 30.01 in 10.0 mi WNW 5.8 mph - N/A   Clear
1:55 AM 37.4 °F 31.4 °F 26.6 °F 65% 30.01 in 10.0 mi NW 8.1 mph - N/A   Scattered Clouds
2:15 AM 37.4 °F 30.8 °F 26.6 °F 65% 30.02 in 10.0 mi WNW 9.2 mph 18.4 mph N/A   Scattered Clouds
2:35 AM 37.4 °F 30.3 °F 26.6 °F 65% 30.02 in 10.0 mi WNW 10.4 mph 17.3 mph N/A   Clear
2:55 AM 35.6 °F 29.9 °F 24.8 °F 65% 30.03 in 10.0 mi West 6.9 mph - N/A   Clear
3:15 AM 37.4 °F 31.4 °F 21.2 °F 52% 30.03 in 10.0 mi WNW 8.1 mph - N/A   Clear
3:35 AM 37.4 °F 31.4 °F 21.2 °F 52% 30.03 in 10.0 mi WNW 8.1 mph 21.9 mph N/A   Clear
3:55 AM 35.6 °F 29.9 °F 21.2 °F 56% 30.02 in 10.0 mi WNW 6.9 mph - N/A   Clear
4:15 AM 35.6 °F 29.2 °F 21.2 °F 56% 30.03 in 10.0 mi WNW 8.1 mph 16.1 mph N/A   Clear
4:35 AM 35.6 °F 28.6 °F 21.2 °F 56% 30.03 in 10.0 mi WNW 9.2 mph - N/A   Clear
5:15 AM 35.6 °F 30.7 °F 19.4 °F 52% 30.03 in 10.0 mi WNW 5.8 mph - N/A   Clear
5:55 AM 33.8 °F 27.0 °F 19.4 °F 56% 30.03 in 10.0 mi West 8.1 mph - N/A   Clear
6:15 AM 33.8 °F 28.6 °F 19.4 °F 56% 30.03 in 10.0 mi WNW 5.8 mph - N/A   Clear
6:35 AM 33.8 °F 28.6 °F 17.6 °F 52% 30.03 in 10.0 mi West 5.8 mph - N/A   Clear
6:55 AM 33.8 °F 29.6 °F 17.6 °F 52% 30.03 in 10.0 mi WNW 4.6 mph - N/A   Clear
7:15 AM 32.0 °F 27.5 °F 17.6 °F 55% 30.04 in 10.0 mi NNW 4.6 mph - N/A   Clear
7:35 AM 32.0 °F 26.4 °F 15.8 °F 51% 30.04 in 10.0 mi NW 5.8 mph - N/A   Clear
8:15 AM 32.0 °F 28.7 °F 21.2 °F 64% 30.06 in 10.0 mi ESE 3.5 mph - N/A   Clear
8:35 AM 33.8 °F 30.8 °F 23.0 °F 65% 30.07 in 10.0 mi ESE 3.5 mph - N/A   Clear
8:55 AM 33.8 °F 30.8 °F 23.0 °F 65% 30.07 in 10.0 mi ESE 3.5 mph - N/A   Clear
9:15 AM 35.6 °F 30.7 °F 23.0 °F 60% 30.07 in 10.0 mi SSE 5.8 mph - N/A   Clear
9:35 AM 35.6 °F 30.7 °F 23.0 °F 60% 30.08 in 10.0 mi SE 5.8 mph - N/A   Clear
9:55 AM 35.6 °F 31.7 °F 21.2 °F 56% 30.08 in 10.0 mi SE 4.6 mph - N/A   Clear
10:15 AM 37.4 °F 34.9 °F 21.2 °F 52% 30.08 in 10.0 mi East 3.5 mph - N/A   Clear
10:35 AM 37.4 °F 34.9 °F 21.2 °F 52% 30.08 in 10.0 mi East 3.5 mph - N/A   Clear
10:55 AM 37.4 °F 34.9 °F 19.4 °F 48% 30.09 in 10.0 mi NNE 3.5 mph - N/A   Clear
11:15 AM 39.2 °F 35.9 °F 19.4 °F 45% 30.09 in 10.0 mi North 4.6 mph - N/A   Clear
11:35 AM 39.2 °F - 19.4 °F 45% 30.09 in 10.0 mi Calm Calm - N/A   Clear
11:55 AM 39.2 °F - 17.6 °F 42% 30.09 in 10.0 mi Calm Calm - N/A   Clear
12:15 PM 41.0 °F 35.2 °F 21.2 °F 45% 30.09 in 10.0 mi SW 9.2 mph - N/A   Clear
12:35 PM 41.0 °F 34.3 °F 21.2 °F 45% 30.08 in 10.0 mi SW 11.5 mph - N/A   Clear
12:55 PM 41.0 °F 34.3 °F 23.0 °F 49% 30.08 in 10.0 mi SW 11.5 mph 17.3 mph N/A   Clear
1:15 PM 42.8 °F 36.6 °F 23.0 °F 46% 30.08 in 10.0 mi SW 11.5 mph - N/A   Clear
1:35 PM 42.8 °F 36.6 °F 23.0 °F 46% 30.07 in 10.0 mi SW 11.5 mph 17.3 mph N/A   Clear
1:55 PM 42.8 °F 37.0 °F 23.0 °F 46% 30.07 in 10.0 mi SW 10.4 mph 17.3 mph N/A   Clear
2:15 PM 42.8 °F 36.6 °F 23.0 °F 46% 30.06 in 10.0 mi SW 11.5 mph 20.7 mph N/A   Clear
2:35 PM 42.8 °F 35.4 °F 21.2 °F 42% 30.06 in 10.0 mi WSW 15.0 mph 19.6 mph N/A   Clear
2:55 PM 44.6 °F 38.4 °F 21.2 °F 39% 30.06 in 10.0 mi West 12.7 mph 19.6 mph N/A   Scattered Clouds
3:15 PM 42.8 °F 41.1 °F 21.2 °F 42% 30.07 in 10.0 mi WNW 3.5 mph - N/A   Scattered Clouds
3:35 PM 44.6 °F 40.2 °F 21.2 °F 39% 30.07 in 10.0 mi NNE 8.1 mph 17.3 mph N/A   Mostly Cloudy
3:55 PM 44.6 °F 42.2 °F 21.2 °F 39% 30.07 in 10.0 mi SSW 4.6 mph - N/A   Overcast
4:15 PM 42.8 °F 41.1 °F 21.2 °F 42% 30.08 in 10.0 mi NE 3.5 mph - N/A   Mostly Cloudy
4:35 PM 41.0 °F 38.0 °F 21.2 °F 45% 30.09 in 10.0 mi NNE 4.6 mph - N/A   Scattered Clouds
4:55 PM 41.0 °F 39.0 °F 21.2 °F 45% 30.09 in 10.0 mi ENE 3.5 mph - N/A   Clear
5:15 PM 41.0 °F 38.0 °F 21.2 °F 45% 30.09 in 10.0 mi NE 4.6 mph - N/A   Clear
5:35 PM 41.0 °F - 21.2 °F 45% 30.09 in 10.0 mi Calm Calm - N/A   Clear
5:55 PM 39.2 °F 37.0 °F 21.2 °F 49% 30.10 in 10.0 mi East 3.5 mph - N/A   Clear
6:15 PM 37.4 °F - 21.2 °F 52% 30.10 in 10.0 mi Calm Calm - N/A   Clear
6:35 PM 37.4 °F - 21.2 °F 52% 30.10 in 10.0 mi Calm Calm - N/A   Clear
7:15 PM 35.6 °F - 21.2 °F 56% 30.11 in 10.0 mi Calm Calm - N/A   Clear
7:35 PM 35.6 °F - 21.2 °F 56% 30.12 in 10.0 mi Calm Calm - N/A   Clear
7:55 PM 35.6 °F 32.8 °F 21.2 °F 56% 30.12 in 10.0 mi North 3.5 mph - N/A   Clear
8:15 PM 33.8 °F 30.8 °F 21.2 °F 60% 30.12 in 10.0 mi NNW 3.5 mph - N/A   Clear
8:35 PM 33.8 °F 29.6 °F 21.2 °F 60% 30.13 in 10.0 mi NW 4.6 mph - N/A   Clear
8:55 PM 32.0 °F 25.6 °F 21.2 °F 64% 30.13 in 10.0 mi NW 6.9 mph - N/A   Clear
9:15 PM 33.8 °F 30.8 °F 21.2 °F 60% 30.13 in 10.0 mi NNW 3.5 mph - N/A   Clear
9:35 PM 35.6 °F 32.8 °F 21.2 °F 56% 30.14 in 10.0 mi WNW 3.5 mph - N/A   Clear
9:55 PM 35.6 °F - 21.2 °F 56% 30.14 in 10.0 mi Calm Calm - N/A   Clear
10:15 PM 35.6 °F - 21.2 °F 56% 30.14 in 10.0 mi Calm Calm - N/A   Clear
10:35 PM 35.6 °F - 19.4 °F 52% 30.15 in 10.0 mi Calm Calm - N/A   Clear
10:55 PM 35.6 °F - 19.4 °F 52% 30.14 in 10.0 mi Calm Calm - N/A   Clear
11:15 PM 35.6 °F - 19.4 °F 52% 30.14 in 10.0 mi Calm Calm - N/A   Clear
11:35 PM 35.6 °F 32.8 °F 19.4 °F 52% 30.14 in 10.0 mi South 3.5 mph - N/A   Clear
11:55 PM 35.6 °F 30.7 °F 19.4 °F 52% 30.14 in 10.0 mi South 5.8 mph - N/A   Clear